[[{"header":{"parameterUnit":"m.s-1","parameterCategory":2,"la1":30.2991,"la2":30.254,"lo1":-89.0895,"lo2":-89.0444,"dy":0.0017,"dx":0.0017,"nx":28,"ny":28,"refTime":"2023-04-08T21:00:00:Z","depth":"0","parameterNumber":2,"parameterNumberName":"U-component_of_CURRENTS"},"data":[0,0,0,0,0,0,0,0,0,0,0,0,0,0,0,0,0,0,0,0,0,0,0,0,0,0,0,0,0,0,0,0,0,0,0,0,0,0,0,0,0,0,0,0,0,0,0,0,0,0,0,0,0,0,0,0,0,0,-0.2707,-0.2708,0,-0.2731,-0.2731,-0.2731,-0.2697,-0.2696,-0.2695,-0.2695,-0.2675,-0.2675,-0.2675,0,0,0,0,0,0,0,0,0,0,0,0,0,-0.2622,-0.2623,-0.2707,-0.2708,-0.2708,-0.2731,-0.2731,-0.2731,-0.2697,-0.2696,-0.2695,-0.2694,-0.2675,-0.2675,-0.2675,0,0,0,0,0,0,0,0,0,0,0,0,0,-0.265,-0.2624,-0.2707,-0.2697,-0.2696,-0.2731,-0.2731,-0.2731,-0.2698,-0.2696,-0.2695,-0.2694,-0.2675,-0.2675,-0.2675,-0.2705,0,0,-0.2677,-0.2677,0,0,0,0,0,0,0,0,-0.2649,-0.2653,-0.2698,-0.2697,-0.2697,-0.2713,-0.2694,-0.2721,-0.2698,-0.2694,-0.2695,-0.2693,-0.2687,-0.2686,-0.2689,-0.2704,-0.2703,-0.2677,-0.2677,-0.2677,-0.2677,0,0,0,0,0,0,0,-0.2647,-0.2652,-0.2713,-0.2698,-0.2698,-0.2687,-0.269,-0.2699,-0.2694,-0.2694,-0.2692,-0.2701,-0.2685,-0.2689,-0.2688,-0.2703,-0.2677,-0.2677,-0.2678,-0.2678,-0.2741,-0.2742,0,0,0,0,0,0,-0.2653,-0.265,-0.2712,-0.2714,-0.2673,-0.269,-0.2693,-0.2706,-0.2695,-0.2693,-0.2702,-0.2699,-0.2689,-0.2688,-0.2688,-0.2723,-0.2677,-0.2678,-0.2678,-0.274,-0.2741,-0.2743,0,0,0,0,0,0,-0.2651,-0.2659,-0.2711,-0.2685,-0.2691,-0.2694,-0.2709,-0.2707,-0.2708,-0.2702,-0.2698,-0.2703,-0.2688,-0.2687,-0.27,-0.2722,-0.2678,-0.2678,-0.2738,-0.274,-0.2742,-0.2794,0,0,0,0,0,0,-0.2649,-0.2658,-0.2665,-0.2686,-0.2693,-0.2739,-0.271,-0.2709,-0.2717,-0.2713,-0.2702,-0.2699,-0.2687,-0.2699,-0.27,-0.2722,-0.2679,-0.2736,-0.2739,-0.2741,-0.279,-0.2798,-0.2804,0,0,0,0,0,-0.2646,-0.2664,-0.2665,-0.2672,-0.2704,-0.274,-0.2743,-0.2737,-0.2718,-0.2729,-0.2719,-0.2699,-0.2716,-0.2701,-0.2702,-0.2724,-0.2735,-0.2738,-0.2741,-0.2787,-0.2796,-0.2803,0,0,0,0,0,0,-0.2625,-0.2663,-0.2664,-0.2691,-0.2717,-0.2736,-0.2743,-0.2742,-0.2744,-0.2734,-0.2718,-0.2716,-0.2736,-0.2727,-0.271,-0.2751,-0.2723,-0.2726,-0.2758,-0.2766,-0.2772,-0.2778,-0.2679,0,0,0,0,0,-0.2628,-0.265,-0.2685,-0.2704,-0.272,-0.2732,-0.2742,-0.2745,-0.2754,-0.2752,-0.2746,-0.2743,-0.2754,-0.2755,-0.2761,-0.2785,-0.2774,-0.28,-0.2807,-0.2812,-0.2819,-0.2821,-0.2828,-0.2753,-0.2753,-0.2753,0,0,-0.2622,-0.2647,-0.2657,-0.2701,-0.2715,-0.2751,-0.2734,-0.2759,-0.2785,-0.2752,-0.2773,-0.2768,-0.2766,-0.2791,-0.2799,-0.2783,-0.2831,-0.2817,-0.2821,-0.2825,-0.2825,-0.2832,-0.2839,-0.2755,-0.2755,-0.2755,0,0,-0.263,-0.2649,-0.2673,-0.2705,-0.2742,-0.276,-0.2771,-0.2798,-0.2804,-0.2831,-0.2816,-0.2825,-0.2835,-0.2842,-0.2846,-0.2896,-0.2868,-0.2896,-0.2931,-0.2934,-0.294,-0.2945,-0.2948,-0.2953,-0.2897,-0.2897,-0.2897,0,-0.2619,-0.2659,-0.2684,-0.2723,-0.2748,-0.2768,-0.2802,-0.2827,-0.2852,-0.2864,-0.2843,-0.2867,-0.2863,-0.2899,-0.2914,-0.2911,-0.2903,-0.2899,-0.2942,-0.2946,-0.295,-0.2952,-0.2957,-0.29,-0.2899,-0.2899,-0.2899,0,-0.2651,-0.2686,-0.2705,-0.2761,-0.2794,-0.2828,-0.2873,-0.2901,-0.2906,-0.2922,-0.2951,-0.2947,-0.2955,-0.2962,-0.2952,-0.2988,-0.297,-0.295,-0.2918,-0.2961,-0.296,-0.2964,-0.2904,-0.2903,-0.2902,-0.2901,0,0,-0.261,-0.2708,-0.2711,-0.2748,-0.2816,-0.2848,-0.2905,-0.2958,-0.2993,-0.3006,-0.3039,-0.3055,-0.3038,-0.3043,-0.3032,-0.3039,-0.3064,-0.3008,-0.3006,-0.3006,-0.3068,-0.3021,-0.302,-0.3043,-0.3044,-0.3045,-0.3058,0,-0.262,-0.2695,-0.2743,-0.2811,-0.2853,-0.2904,-0.2957,-0.3008,-0.304,-0.3082,-0.3084,-0.3106,-0.3075,-0.3074,-0.3079,-0.3072,-0.3075,-0.3062,-0.3031,-0.3031,-0.2979,-0.3024,-0.2925,-0.2924,-0.3061,-0.3062,-0.3062,0,-0.2624,-0.268,-0.2745,-0.2845,-0.2867,-0.2908,-0.2989,-0.3044,-0.3116,-0.3133,-0.3154,-0.3159,-0.3181,-0.3139,-0.3142,-0.3131,-0.3104,-0.3092,-0.3092,-0.3032,-0.2991,-0.2903,-0.2926,-0.2909,-0.3068,-0.3067,-0.3067,0,-0.2571,-0.2676,-0.2725,-0.276,-0.2876,-0.2907,-0.296,-0.3042,-0.3091,-0.3157,-0.3186,-0.321,-0.3214,-0.3197,-0.3167,-0.3154,-0.3164,-0.3139,-0.3074,-0.3071,-0.2973,-0.2959,-0.2969,-0.3136,-0.3136,-0.3136,-0.3136,0,-0.256,-0.2599,-0.2703,-0.2734,-0.2792,-0.2879,-0.294,-0.3002,-0.3089,-0.3138,-0.3192,-0.3221,-0.3226,-0.3233,-0.3196,-0.3149,-0.3179,-0.3092,-0.3074,-0.2989,-0.2977,-0.2945,-0.2944,-0.3136,-0.3136,-0.3136,-0.3136,0,-0.2489,-0.2564,-0.2624,-0.2735,-0.2768,-0.2801,-0.2912,-0.2959,-0.3052,-0.3118,-0.3136,-0.3228,-0.3238,-0.3243,-0.3225,-0.3177,-0.3089,-0.3111,-0.3014,-0.2984,-0.2901,-0.2906,-0.2873,-0.2787,-0.3051,-0.305,-0.3049,0,-0.2461,-0.2484,-0.2591,-0.2614,-0.2657,-0.2725,-0.2771,-0.2901,-0.2954,-0.3105,-0.3124,-0.3194,-0.3214,-0.3202,-0.314,-0.3088,-0.3046,-0.2958,-0.2915,-0.2896,-0.2888,-0.2878,-0.2806,-0.2811,-0.2808,-0.2806,-0.2804,0,-0.2384,-0.2413,-0.2454,-0.251,-0.2555,-0.2619,-0.2696,-0.2742,-0.2891,-0.2967,-0.3059,-0.3104,-0.3137,-0.3067,-0.302,-0.2957,-0.2885,-0.2909,-0.2911,-0.2724,-0.2692,-0.2599,-0.2814,-0.2784,-0.2786,-0.2787,-0.2788,-0.2789,-0.2289,-0.2293,-0.2337,-0.2376,-0.2428,-0.2469,-0.2475,-0.2588,-0.2665,-0.2764,-0.2901,-0.2962,-0.2976,-0.2908,-0.2856,-0.2738,-0.2747,-0.2653,-0.2668,-0.2667,-0.2557,-0.2735,-0.2669,-0.2671,-0.2672,-0.2673,-0.2674,0,-0.2162,-0.2178,-0.2203,-0.224,-0.2232,-0.2315,-0.2386,-0.2374,-0.2414,-0.2582,-0.2659,-0.2777,-0.2707,-0.2726,-0.264,-0.2534,-0.245,-0.2464,-0.2427,-0.2368,-0.2541,-0.2502,-0.2371,-0.2371,-0.2371,-0.2371,-0.2371,-0.2371,-0.2091,-0.206,-0.208,-0.2019,-0.2041,-0.199,-0.1995,-0.2018,-0.2102,-0.2215,-0.2372,-0.2546,-0.2583,-0.2719,-0.2574,-0.2443,-0.2354,-0.2281,-0.2282,-0.2424,-0.2443,-0.2462,-0.2426,-0.2281,-0.2281,-0.2033,-0.2031,-0.203]},{"header":{"parameterUnit":"m.s-1","parameterCategory":2,"la1":30.2991,"la2":30.254,"lo1":-89.0895,"lo2":-89.0444,"dy":0.0017,"dx":0.0017,"nx":28,"ny":28,"refTime":"2023-04-08T21:00:00:Z","depth":"0","parameterNumber":3,"parameterNumberName":"V-component_of_CURRENTS"},"data":[0,0,0,0,0,0,0,0,0,0,0,0,0,0,0,0,0,0,0,0,0,0,0,0,0,0,0,0,0,0,0,0,0,0,0,0,0,0,0,0,0,0,0,0,0,0,0,0,0,0,0,0,0,0,0,0,0,0,-0.0267,-0.0266,0,-0.0168,-0.0167,-0.0166,-0.0103,-0.0103,-0.0102,-0.0102,0.0021,0.0024,0.0027,0,0,0,0,0,0,0,0,0,0,0,0,0,-0.0358,-0.0357,-0.0267,-0.0266,-0.0264,-0.0168,-0.0167,-0.0165,-0.0103,-0.0103,-0.0102,-0.0102,0.002,0.0024,0.0027,0,0,0,0,0,0,0,0,0,0,0,0,0,-0.0295,-0.0357,-0.0267,-0.0222,-0.0217,-0.0169,-0.0167,-0.0165,-0.0103,-0.0103,-0.0102,-0.0102,0.0019,0.0023,0.0028,0.0045,0,0,0.0041,0.0043,0,0,0,0,0,0,0,0,-0.0298,-0.0291,-0.023,-0.0225,-0.0219,-0.0148,-0.0154,-0.0094,-0.0103,-0.0146,-0.0102,-0.0101,-0.0034,-0.0025,-0.0007,0.0051,0.0056,0.0042,0.0044,0.0046,0.0048,0,0,0,0,0,0,0,-0.0303,-0.0295,-0.0227,-0.0229,-0.0222,-0.0192,-0.0183,-0.0142,-0.0093,-0.0142,-0.0137,-0.0127,-0.003,-0.0012,-0.0004,0.0058,0.0042,0.0046,0.0048,0.005,0.0144,0.0144,0,0,0,0,0,0,-0.0318,-0.0299,-0.023,-0.0224,-0.0259,-0.0191,-0.018,-0.0171,-0.0094,-0.0082,-0.0128,-0.0125,-0.0019,-0.0009,0.0001,0.0027,0.0046,0.0051,0.0053,0.0145,0.0144,0.0144,0,0,0,0,0,0,-0.0321,-0.0313,-0.0234,-0.026,-0.0248,-0.019,-0.018,-0.0169,-0.015,-0.0083,-0.0071,-0.0119,-0.0019,-0.0005,0.0035,0.0032,0.0053,0.0057,0.0145,0.0145,0.0144,0.0078,0,0,0,0,0,0,-0.0324,-0.0315,-0.0317,-0.0261,-0.0247,-0.0214,-0.018,-0.0168,-0.0144,-0.0139,-0.0072,-0.006,-0.0017,0.0028,0.0039,0.0038,0.006,0.0145,0.0145,0.0144,0.008,0.0075,0.0071,0,0,0,0,0,-0.0328,-0.0335,-0.0318,-0.031,-0.0251,-0.0215,-0.0205,-0.0162,-0.0145,-0.0142,-0.0094,-0.0062,0.0034,0.0031,0.0045,0.0045,0.0145,0.0145,0.0144,0.0082,0.0076,0.0071,0,0,0,0,0,0,-0.0377,-0.0328,-0.0308,-0.03,-0.0264,-0.0205,-0.0199,-0.0168,-0.0128,-0.0124,-0.0061,-0.0046,-0.0013,0.0024,0.002,0.0071,0.0094,0.0096,0.0042,0.0037,0.0033,0.002,0.0064,0,0,0,0,0,-0.039,-0.0383,-0.0329,-0.0325,-0.031,-0.0256,-0.0238,-0.0208,-0.0163,-0.0145,-0.0096,-0.0047,-0.0004,0.0022,0.0063,0.0092,0.0136,0.0101,0.0096,0.0092,0.0091,0.0154,0.0155,0.0143,0.0143,0.0143,0,0,-0.0408,-0.0381,-0.0377,-0.0336,-0.0305,-0.0291,-0.0244,-0.0222,-0.0208,-0.0138,-0.011,-0.0062,-0.0001,0.0032,0.005,0.0063,0.0117,0.0092,0.0088,0.0089,0.0153,0.0155,0.0156,0.0143,0.0143,0.0143,0,0,-0.0448,-0.0418,-0.0427,-0.0401,-0.0361,-0.0324,-0.0321,-0.0265,-0.0238,-0.0204,-0.0151,-0.0105,-0.0043,0.0006,0.0037,0.0033,0.0088,0.0041,0.0014,0.0074,0.0076,0.0078,0.0128,0.0135,0.0043,0.0042,0.0042,0,-0.0475,-0.0474,-0.0425,-0.0425,-0.0412,-0.0344,-0.035,-0.0311,-0.0249,-0.0226,-0.0207,-0.0103,-0.0054,0.0,-0.0002,0.0023,0.0062,0.0028,0.0068,0.0071,0.0074,0.0125,0.0134,0.0039,0.004,0.004,0.004,0,-0.0515,-0.0515,-0.0519,-0.0496,-0.0474,-0.0469,-0.0409,-0.0383,-0.0341,-0.0294,-0.0236,-0.016,-0.0097,-0.0074,-0.0039,0.0007,0.0028,0.0052,0.008,0.0072,0.0126,0.0136,0.0035,0.0036,0.0037,0.0037,0,0,-0.0574,-0.0554,-0.0556,-0.0562,-0.0512,-0.0501,-0.0476,-0.043,-0.0413,-0.0339,-0.0307,-0.0223,-0.0171,-0.0132,-0.0073,-0.0017,0.0036,0.0019,0.0024,0.0063,0.0164,0.0217,0.0234,0.0066,0.0068,0.0069,0.019,0,-0.0623,-0.0657,-0.0619,-0.0641,-0.0654,-0.0585,-0.0574,-0.0521,-0.0456,-0.0406,-0.0306,-0.0254,-0.0194,-0.0165,-0.0098,0.0006,0.006,0.0001,0.0171,0.0175,0.022,0.0247,0.0294,0.0409,0.02,0.0202,0.0203,0,-0.0673,-0.0693,-0.0732,-0.0728,-0.0726,-0.072,-0.068,-0.0653,-0.0556,-0.0508,-0.0417,-0.0334,-0.0229,-0.0189,-0.0006,-0.0047,0.0046,0.0127,0.0134,0.0215,0.0248,0.0387,0.0436,0.0618,0.0219,0.0218,0.0217,0,-0.0753,-0.0765,-0.0805,-0.0802,-0.0786,-0.0784,-0.0763,-0.0688,-0.0666,-0.0559,-0.0527,-0.0385,-0.0313,-0.017,0.0012,0.0001,0.0211,0.0219,0.0355,0.0359,0.045,0.046,0.0694,0.0334,0.0334,0.0334,0.0333,0,-0.0821,-0.0849,-0.0847,-0.0869,-0.0917,-0.0865,-0.0875,-0.083,-0.0756,-0.0728,-0.0583,-0.0525,-0.0306,-0.0152,0.0,0.0224,0.0211,0.0361,0.0402,0.0427,0.0434,0.0636,0.0695,0.0338,0.0337,0.0336,0.0335,0,-0.0898,-0.0895,-0.0942,-0.0949,-0.0956,-0.0985,-0.0962,-0.0961,-0.0877,-0.083,-0.0801,-0.0618,-0.0406,-0.0177,0.007,0.0211,0.0532,0.0485,0.0498,0.0539,0.0823,0.0874,0.114,0.1239,0.0653,0.0655,0.0657,0,-0.094,-0.0975,-0.1016,-0.1055,-0.1059,-0.1085,-0.1108,-0.1039,-0.1021,-0.0884,-0.087,-0.0656,-0.049,-0.009,0.021,0.0513,0.0638,0.071,0.07,0.0864,0.0952,0.0994,0.106,0.0792,0.0795,0.0797,0.0799,0,-0.1018,-0.1028,-0.107,-0.1162,-0.1199,-0.1239,-0.1246,-0.1253,-0.1157,-0.1093,-0.0964,-0.0816,-0.0396,-0.0003,0.0408,0.0578,0.0856,0.0765,0.0947,0.1095,0.1147,0.1253,0.0674,0.0819,0.0817,0.0816,0.0815,0.0814,-0.1065,-0.1121,-0.1179,-0.1261,-0.1317,-0.1372,-0.1402,-0.1377,-0.1347,-0.1222,-0.1052,-0.0789,-0.018,0.042,0.0636,0.1103,0.1036,0.1223,0.1273,0.1304,0.1402,0.0861,0.1042,0.1042,0.1041,0.1041,0.104,0,-0.1126,-0.1187,-0.1275,-0.1366,-0.1445,-0.1446,-0.1483,-0.1485,-0.1452,-0.1271,-0.1098,-0.0436,0.0159,0.0705,0.139,0.1616,0.1658,0.1711,0.1793,0.1837,0.1384,0.1393,0.1645,0.1645,0.1645,0.1644,0.1644,0.1644,-0.1157,-0.1256,-0.1307,-0.1453,-0.1516,-0.1597,-0.1618,-0.1596,-0.1483,-0.118,-0.0816,-0.0518,0.0338,0.1489,0.2097,0.2116,0.23,0.2267,0.2364,0.2058,0.2016,0.1976,0.2003,0.2378,0.2379,0.2814,0.2819,0.2822]}],[{"header":{"parameterUnit":"m.s-1","parameterCategory":2,"la1":30.2991,"la2":30.254,"lo1":-89.0895,"lo2":-89.0444,"dy":0.0017,"dx":0.0017,"nx":28,"ny":28,"refTime":"2023-04-08T21:00:00:Z","depth":"2","parameterNumber":2,"parameterNumberName":"U-component_of_CURRENTS"},"data":[0,0,0,0,0,0,0,0,0,0,0,0,0,0,0,0,0,0,0,0,0,0,0,0,0,0,0,0,0,0,0,0,0,0,0,0,0,0,0,0,0,0,0,0,0,0,0,0,0,0,0,0,0,0,0,0,0,0,-0.2572,-0.2573,0,-0.2599,-0.2599,-0.2599,-0.2572,-0.2572,-0.2571,-0.257,-0.2555,-0.2556,-0.2556,0,0,0,0,0,0,0,0,0,0,0,0,0,-0.2488,-0.2489,-0.2572,-0.2573,-0.2573,-0.2599,-0.2599,-0.2599,-0.2573,-0.2572,-0.2571,-0.257,-0.2555,-0.2556,-0.2556,0,0,0,0,0,0,0,0,0,0,0,0,0,-0.2518,-0.249,-0.2572,-0.2566,-0.2566,-0.2599,-0.2599,-0.2599,-0.2573,-0.2572,-0.2571,-0.257,-0.2555,-0.2556,-0.2556,-0.2581,0,0,-0.2557,-0.2558,0,0,0,0,0,0,0,0,-0.2516,-0.252,-0.2566,-0.2566,-0.2566,-0.2584,-0.2564,-0.2592,-0.2573,-0.2567,-0.257,-0.2569,-0.2564,-0.2564,-0.2567,-0.2581,-0.258,-0.2557,-0.2558,-0.2558,-0.2558,0,0,0,0,0,0,0,-0.2514,-0.2519,-0.2579,-0.2567,-0.2567,-0.2558,-0.2561,-0.2569,-0.2568,-0.2567,-0.2566,-0.2575,-0.2563,-0.2567,-0.2567,-0.258,-0.2557,-0.2558,-0.2558,-0.2558,-0.2621,-0.2622,0,0,0,0,0,0,-0.2519,-0.2517,-0.2579,-0.258,-0.2541,-0.2561,-0.2564,-0.2577,-0.2569,-0.2568,-0.2576,-0.2573,-0.2567,-0.2566,-0.2566,-0.2604,-0.2558,-0.2558,-0.2559,-0.2619,-0.2621,-0.2622,0,0,0,0,0,0,-0.2517,-0.2525,-0.2578,-0.2551,-0.2558,-0.2564,-0.2579,-0.2578,-0.2582,-0.2576,-0.2573,-0.258,-0.2566,-0.2565,-0.258,-0.2603,-0.2559,-0.2559,-0.2618,-0.262,-0.2622,-0.2674,0,0,0,0,0,0,-0.2515,-0.2524,-0.2531,-0.2552,-0.256,-0.2605,-0.258,-0.2579,-0.259,-0.2587,-0.258,-0.2577,-0.2565,-0.2579,-0.258,-0.2602,-0.2559,-0.2616,-0.2619,-0.2621,-0.2671,-0.2678,-0.2684,0,0,0,0,0,-0.2512,-0.253,-0.2532,-0.2539,-0.2571,-0.2607,-0.261,-0.2607,-0.2592,-0.2604,-0.2596,-0.2577,-0.2596,-0.2581,-0.2582,-0.2605,-0.2615,-0.2618,-0.2621,-0.2668,-0.2677,-0.2684,0,0,0,0,0,0,-0.2493,-0.253,-0.2532,-0.2559,-0.2585,-0.2603,-0.2613,-0.2614,-0.2618,-0.261,-0.2595,-0.2594,-0.2616,-0.2606,-0.259,-0.2631,-0.2603,-0.2606,-0.2638,-0.2646,-0.2653,-0.2658,-0.256,0,0,0,0,0,-0.2496,-0.2517,-0.2552,-0.2571,-0.2587,-0.26,-0.2612,-0.2617,-0.2627,-0.2627,-0.2623,-0.2621,-0.2632,-0.2634,-0.2641,-0.2664,-0.2653,-0.268,-0.2687,-0.2692,-0.2698,-0.27,-0.2707,-0.2633,-0.2633,-0.2633,0,0,-0.2491,-0.2516,-0.2525,-0.2569,-0.2583,-0.2619,-0.2604,-0.263,-0.2657,-0.2626,-0.265,-0.2646,-0.2644,-0.267,-0.2679,-0.2662,-0.271,-0.2696,-0.2701,-0.2704,-0.2704,-0.2711,-0.2718,-0.2635,-0.2634,-0.2634,0,0,-0.25,-0.2519,-0.2542,-0.2573,-0.2611,-0.2629,-0.2641,-0.2669,-0.2677,-0.2706,-0.2692,-0.2703,-0.2714,-0.2721,-0.2725,-0.2774,-0.2747,-0.2775,-0.281,-0.2813,-0.2819,-0.2824,-0.2827,-0.2831,-0.2776,-0.2776,-0.2776,0,-0.2491,-0.2529,-0.2554,-0.2592,-0.2617,-0.2637,-0.2672,-0.2697,-0.2724,-0.2737,-0.2719,-0.2745,-0.2741,-0.2776,-0.2792,-0.2789,-0.2782,-0.2778,-0.2821,-0.2825,-0.2829,-0.2831,-0.2836,-0.2779,-0.2779,-0.2778,-0.2778,0,-0.2522,-0.2556,-0.2575,-0.263,-0.2662,-0.2696,-0.2741,-0.277,-0.2777,-0.2794,-0.2826,-0.2823,-0.2832,-0.284,-0.283,-0.2866,-0.2849,-0.2829,-0.2797,-0.284,-0.2839,-0.2843,-0.2783,-0.2782,-0.2781,-0.2781,0,0,-0.2484,-0.2578,-0.2581,-0.2617,-0.2684,-0.2715,-0.2772,-0.2824,-0.2859,-0.2876,-0.291,-0.2927,-0.2914,-0.2918,-0.2909,-0.2916,-0.2942,-0.2887,-0.2885,-0.2885,-0.2947,-0.2898,-0.2897,-0.2923,-0.2924,-0.2924,-0.2936,0,-0.2495,-0.2567,-0.2612,-0.2679,-0.272,-0.277,-0.2822,-0.2873,-0.2906,-0.2949,-0.2953,-0.2977,-0.2949,-0.295,-0.2956,-0.2949,-0.2953,-0.294,-0.291,-0.2909,-0.2857,-0.2901,-0.2657,-0.2644,-0.294,-0.294,-0.2941,0,-0.2499,-0.2553,-0.2617,-0.2711,-0.2733,-0.2773,-0.2854,-0.2908,-0.2979,-0.2998,-0.3022,-0.3028,-0.3052,-0.3013,-0.3017,-0.3007,-0.2982,-0.2971,-0.297,-0.2908,-0.2868,-0.2649,-0.264,-0.2947,-0.2946,-0.2946,-0.2945,0,-0.2449,-0.255,-0.2598,-0.2632,-0.2743,-0.2774,-0.2827,-0.2908,-0.2956,-0.3023,-0.3052,-0.3078,-0.3085,-0.3069,-0.3043,-0.303,-0.304,-0.3016,-0.2951,-0.2947,-0.2726,-0.2701,-0.3013,-0.3013,-0.3013,-0.3013,-0.3013,0,-0.2439,-0.2477,-0.2578,-0.2608,-0.2665,-0.2748,-0.2809,-0.2871,-0.2956,-0.3003,-0.306,-0.3087,-0.3097,-0.3105,-0.307,-0.3024,-0.3055,-0.2968,-0.295,-0.274,-0.2717,-0.2964,-0.2958,-0.3014,-0.3014,-0.3013,-0.3013,0,-0.2372,-0.2445,-0.2503,-0.261,-0.2642,-0.2676,-0.2783,-0.2828,-0.2921,-0.2985,-0.3004,-0.3096,-0.3106,-0.3113,-0.3098,-0.3051,-0.3017,-0.2986,-0.2745,-0.2699,-0.2917,-0.2914,-0.2927,-0.2925,-0.2924,-0.2923,-0.2922,0,-0.2346,-0.2368,-0.2472,-0.2494,-0.2536,-0.2604,-0.2647,-0.2774,-0.2823,-0.2972,-0.2988,-0.306,-0.3074,-0.3064,-0.2984,-0.2928,-0.2987,-0.268,-0.2618,-0.2929,-0.291,-0.2909,-0.2908,-0.2344,-0.2338,-0.2334,-0.233,0,-0.2272,-0.2301,-0.2341,-0.2395,-0.2439,-0.2499,-0.2572,-0.2615,-0.2759,-0.2829,-0.2916,-0.2956,-0.2969,-0.2815,-0.2761,-0.2685,-0.2675,-0.2589,-0.2958,-0.2418,-0.2384,-0.2365,-0.2381,-0.229,-0.2294,-0.2297,-0.2299,-0.2301,-0.2182,-0.2186,-0.2229,-0.2265,-0.2315,-0.2352,-0.2355,-0.2454,-0.2522,-0.2585,-0.2727,-0.2705,-0.27,-0.2507,-0.2395,-0.2295,-0.2473,-0.234,-0.2352,-0.2369,-0.2314,-0.2281,-0.2156,-0.2159,-0.2162,-0.2164,-0.2166,0,-0.2058,-0.2075,-0.2098,-0.2133,-0.212,-0.2204,-0.2266,-0.2232,-0.2253,-0.2349,-0.2395,-0.2182,-0.2108,-0.2108,-0.1901,-0.1879,-0.1826,-0.1793,-0.1709,-0.175,-0.1787,-0.17,-0.1381,-0.1379,-0.1377,-0.1375,0,0,-0.1989,-0.1958,-0.1975,-0.1912,-0.1934,-0.1875,-0.1875,-0.1856,-0.1877,-0.1832,-0.1827,-0.2,-0.2057,-0.172,-0.1641,-0.1482,-0.1596,-0.1407,-0.2034,-0.1975,-0.2009,-0.2098,-0.2012,0,0,0,0,0]},{"header":{"parameterUnit":"m.s-1","parameterCategory":2,"la1":30.2991,"la2":30.254,"lo1":-89.0895,"lo2":-89.0444,"dy":0.0017,"dx":0.0017,"nx":28,"ny":28,"refTime":"2023-04-08T21:00:00:Z","depth":"2","parameterNumber":3,"parameterNumberName":"V-component_of_CURRENTS"},"data":[0,0,0,0,0,0,0,0,0,0,0,0,0,0,0,0,0,0,0,0,0,0,0,0,0,0,0,0,0,0,0,0,0,0,0,0,0,0,0,0,0,0,0,0,0,0,0,0,0,0,0,0,0,0,0,0,0,0,-0.0184,-0.0183,0,-0.0089,-0.0088,-0.0087,-0.0027,-0.0026,-0.0026,-0.0026,0.0094,0.0096,0.0099,0,0,0,0,0,0,0,0,0,0,0,0,0,-0.0272,-0.0271,-0.0185,-0.0183,-0.0182,-0.0089,-0.0088,-0.0086,-0.0027,-0.0026,-0.0026,-0.0026,0.0093,0.0096,0.0099,0,0,0,0,0,0,0,0,0,0,0,0,0,-0.021,-0.027,-0.0185,-0.0142,-0.0137,-0.0089,-0.0088,-0.0086,-0.0027,-0.0026,-0.0026,-0.0025,0.0091,0.0096,0.01,0.0118,0,0,0.0113,0.0115,0,0,0,0,0,0,0,0,-0.0214,-0.0207,-0.0149,-0.0144,-0.0139,-0.007,-0.0075,-0.0017,-0.0027,-0.0068,-0.0026,-0.0025,0.004,0.0049,0.0066,0.0123,0.0129,0.0114,0.0116,0.0118,0.0119,0,0,0,0,0,0,0,-0.0218,-0.0211,-0.0146,-0.0148,-0.0142,-0.0112,-0.0103,-0.0063,-0.0017,-0.0064,-0.006,-0.005,0.0044,0.0062,0.007,0.013,0.0114,0.0117,0.012,0.0122,0.0214,0.0213,0,0,0,0,0,0,-0.0234,-0.0215,-0.0149,-0.0143,-0.0177,-0.0111,-0.0101,-0.0092,-0.0017,-0.0006,-0.0051,-0.0048,0.0054,0.0065,0.0074,0.0098,0.0118,0.0122,0.0125,0.0214,0.0214,0.0213,0,0,0,0,0,0,-0.0236,-0.0229,-0.0153,-0.0177,-0.0166,-0.0111,-0.01,-0.009,-0.0072,-0.0007,0.0005,-0.0043,0.0055,0.0068,0.0107,0.0104,0.0124,0.0128,0.0214,0.0214,0.0213,0.0148,0,0,0,0,0,0,-0.0239,-0.023,-0.0233,-0.0179,-0.0165,-0.0134,-0.01,-0.0089,-0.0067,-0.0062,0.0003,0.0015,0.0056,0.01,0.0111,0.011,0.0132,0.0214,0.0214,0.0214,0.015,0.0145,0.0141,0,0,0,0,0,-0.0242,-0.025,-0.0234,-0.0226,-0.0169,-0.0135,-0.0125,-0.0084,-0.0067,-0.0065,-0.0018,0.0013,0.0106,0.0103,0.0117,0.0116,0.0214,0.0214,0.0214,0.0152,0.0146,0.0141,0,0,0,0,0,0,-0.0291,-0.0243,-0.0224,-0.0217,-0.0183,-0.0125,-0.012,-0.009,-0.0051,-0.0048,0.0013,0.0028,0.006,0.0096,0.0092,0.0142,0.0164,0.0166,0.0113,0.0108,0.0104,0.0091,0.0135,0,0,0,0,0,-0.0304,-0.0297,-0.0245,-0.0242,-0.0228,-0.0175,-0.0158,-0.0129,-0.0086,-0.0068,-0.0021,0.0027,0.0068,0.0093,0.0133,0.0162,0.0205,0.017,0.0166,0.0162,0.016,0.0221,0.0222,0.0212,0.0212,0.0212,0,0,-0.0322,-0.0296,-0.0292,-0.0253,-0.0223,-0.021,-0.0164,-0.0143,-0.013,-0.0062,-0.0034,0.0012,0.0072,0.0103,0.0121,0.0134,0.0185,0.0161,0.0157,0.0158,0.0221,0.0222,0.0223,0.0212,0.0212,0.0212,0,0,-0.0361,-0.0333,-0.0342,-0.0317,-0.0278,-0.0242,-0.024,-0.0185,-0.0159,-0.0126,-0.0075,-0.003,0.0029,0.0077,0.0107,0.0103,0.0157,0.0111,0.0084,0.0143,0.0144,0.0146,0.0194,0.02,0.0112,0.0112,0.0112,0,-0.0388,-0.0387,-0.034,-0.034,-0.0327,-0.0262,-0.0268,-0.023,-0.017,-0.0148,-0.013,-0.0029,0.0019,0.0071,0.0069,0.0093,0.0131,0.0098,0.0137,0.014,0.0143,0.0191,0.0199,0.0109,0.0109,0.011,0.011,0,-0.0427,-0.0427,-0.0431,-0.0408,-0.0388,-0.0383,-0.0325,-0.03,-0.026,-0.0215,-0.0159,-0.0085,-0.0024,-0.0002,0.0033,0.0077,0.0097,0.012,0.0148,0.014,0.0192,0.0201,0.0105,0.0106,0.0107,0.0107,0,0,-0.0486,-0.0465,-0.0468,-0.0473,-0.0425,-0.0415,-0.039,-0.0346,-0.0329,-0.0259,-0.0228,-0.0146,-0.0097,-0.0059,-0.0001,0.0053,0.0103,0.0088,0.0092,0.013,0.0227,0.0274,0.029,0.0133,0.0134,0.0136,0.0252,0,-0.0534,-0.0566,-0.0529,-0.055,-0.0562,-0.0495,-0.0485,-0.0434,-0.0372,-0.0324,-0.0227,-0.0177,-0.0119,-0.0092,-0.0027,0.0074,0.0127,0.0069,0.0234,0.0239,0.0279,0.0302,0.0259,0.0362,0.0262,0.0263,0.0265,0,-0.0583,-0.0601,-0.0638,-0.0634,-0.0632,-0.0627,-0.0589,-0.0563,-0.047,-0.0424,-0.0336,-0.0256,-0.0155,-0.0115,0.0062,0.0022,0.0112,0.0191,0.0198,0.0273,0.0305,0.0357,0.0384,0.0281,0.028,0.0279,0.0278,0,-0.066,-0.0672,-0.0709,-0.0707,-0.069,-0.069,-0.067,-0.0598,-0.0577,-0.0475,-0.0445,-0.0307,-0.0237,-0.0099,0.0077,0.0067,0.027,0.0279,0.0407,0.0411,0.0424,0.0427,0.0391,0.0391,0.0391,0.039,0.039,0,-0.0727,-0.0754,-0.0752,-0.0773,-0.082,-0.0769,-0.078,-0.0737,-0.0667,-0.064,-0.0501,-0.0445,-0.0231,-0.0082,0.0065,0.028,0.0269,0.0412,0.0452,0.0399,0.0399,0.0367,0.0363,0.0395,0.0394,0.0393,0.0392,0,-0.0803,-0.0799,-0.0845,-0.0851,-0.0859,-0.0888,-0.0867,-0.0867,-0.0787,-0.0742,-0.0715,-0.0537,-0.0333,-0.011,0.013,0.0267,0.046,0.053,0.0453,0.0483,0.0558,0.0549,0.0683,0.0686,0.0688,0.069,0.0692,0,-0.0844,-0.0877,-0.0918,-0.0956,-0.096,-0.0987,-0.101,-0.0944,-0.0927,-0.0797,-0.0783,-0.0577,-0.042,-0.0032,0.0246,0.0534,0.0526,0.0648,0.0627,0.0567,0.0592,0.0579,0.0567,0.0611,0.0612,0.0613,0.0614,0,-0.0921,-0.0931,-0.0971,-0.1061,-0.1099,-0.1138,-0.1146,-0.1153,-0.106,-0.1001,-0.088,-0.074,-0.0347,-0.0015,0.0376,0.0527,0.0604,0.0673,0.0647,0.0545,0.051,0.0531,0.0519,0.062,0.0619,0.0619,0.0619,0.0618,-0.0968,-0.1022,-0.1079,-0.116,-0.1215,-0.1268,-0.1298,-0.1271,-0.1244,-0.1122,-0.0968,-0.0724,-0.037,0.0182,0.0455,0.0702,0.0696,0.075,0.0743,0.0737,0.0708,0.068,0.0816,0.0816,0.0817,0.0817,0.0817,0,-0.1026,-0.1088,-0.1174,-0.1262,-0.1337,-0.1342,-0.1377,-0.1368,-0.1334,-0.1167,-0.1007,-0.0619,-0.0214,0.0144,0.0552,0.08,0.0758,0.0819,0.0725,0.0718,0.0712,0.0678,0.078,0.0781,0.0781,0.0782,0,0,-0.1058,-0.1153,-0.1202,-0.1343,-0.1407,-0.1482,-0.1503,-0.1458,-0.1346,-0.1182,-0.0979,-0.0672,-0.0212,0.0072,0.0389,0.0598,0.0578,0.0599,0.0603,0.0446,0.0437,0.065,0.0589,0,0,0,0,0]}],[{"header":{"parameterUnit":"m.s-1","parameterCategory":2,"la1":30.2991,"la2":30.254,"lo1":-89.0895,"lo2":-89.0444,"dy":0.0017,"dx":0.0017,"nx":28,"ny":28,"refTime":"2023-04-08T21:00:00:Z","depth":"4","parameterNumber":2,"parameterNumberName":"U-component_of_CURRENTS"},"data":[0,0,0,0,0,0,0,0,0,0,0,0,0,0,0,0,0,0,0,0,0,0,0,0,0,0,0,0,0,0,0,0,0,0,0,0,0,0,0,0,0,0,0,0,0,0,0,0,0,0,0,0,0,0,0,0,0,0,-0.1797,-0.1798,0,-0.1876,-0.1877,-0.1878,-0.1923,-0.1923,-0.1924,-0.1924,-0.1991,-0.1992,-0.1993,0,0,0,0,0,0,0,0,0,0,0,0,0,-0.1682,-0.1684,-0.1797,-0.1798,-0.1799,-0.1876,-0.1877,-0.1878,-0.1923,-0.1924,-0.1924,-0.1924,-0.199,-0.1992,-0.1993,0,0,0,0,0,0,0,0,0,0,0,0,0,-0.1741,-0.1684,-0.1797,-0.1833,-0.1837,-0.1876,-0.1877,-0.1878,-0.1923,-0.1924,-0.1924,-0.1925,-0.199,-0.1992,-0.1994,-0.1996,0,0,-0.2,-0.2001,0,0,0,0,0,0,0,0,-0.1738,-0.1745,-0.1826,-0.183,-0.1835,-0.1892,-0.1861,-0.1918,-0.1923,-0.1888,-0.1924,-0.1925,-0.1957,-0.1962,-0.1973,-0.1999,-0.2002,-0.2,-0.2002,-0.2003,-0.2003,0,0,0,0,0,0,0,-0.1734,-0.1742,-0.1826,-0.1827,-0.1833,-0.1844,-0.1853,-0.1872,-0.1917,-0.1891,-0.1895,-0.1907,-0.1959,-0.1971,-0.1975,-0.2003,-0.2,-0.2002,-0.2004,-0.2004,-0.212,-0.2121,0,0,0,0,0,0,-0.1728,-0.1738,-0.1824,-0.1829,-0.1789,-0.1846,-0.1855,-0.1872,-0.1917,-0.1925,-0.1907,-0.1909,-0.1967,-0.1972,-0.1978,-0.2065,-0.2003,-0.2005,-0.2006,-0.2118,-0.212,-0.2122,0,0,0,0,0,0,-0.1725,-0.1735,-0.1821,-0.1787,-0.1799,-0.1847,-0.1865,-0.1873,-0.1917,-0.1929,-0.1937,-0.1946,-0.1968,-0.1975,-0.2027,-0.2064,-0.2006,-0.2008,-0.2116,-0.2119,-0.2121,-0.2186,0,0,0,0,0,0,-0.1722,-0.1734,-0.1758,-0.1786,-0.18,-0.1868,-0.1865,-0.1874,-0.1923,-0.1927,-0.1965,-0.197,-0.1969,-0.2024,-0.2029,-0.2066,-0.2009,-0.2114,-0.2117,-0.212,-0.2182,-0.2191,-0.2199,0,0,0,0,0,-0.1717,-0.1744,-0.1758,-0.177,-0.1827,-0.1869,-0.1878,-0.1912,-0.1924,-0.1952,-0.198,-0.1971,-0.2048,-0.2027,-0.2033,-0.2072,-0.2112,-0.2116,-0.212,-0.2178,-0.2189,-0.2199,0,0,0,0,0,0,-0.1708,-0.1753,-0.1768,-0.1809,-0.1848,-0.1878,-0.1911,-0.1931,-0.1975,-0.1988,-0.1995,-0.2002,-0.2061,-0.2059,-0.2035,-0.2115,-0.2078,-0.2084,-0.2121,-0.2131,-0.2139,-0.2137,-0.2011,0,0,0,0,0,-0.1716,-0.175,-0.179,-0.1825,-0.1848,-0.1885,-0.1913,-0.1938,-0.1973,-0.1994,-0.2022,-0.205,-0.2076,-0.2099,-0.2121,-0.2166,-0.215,-0.2194,-0.2203,-0.221,-0.2212,-0.2218,-0.2226,-0.2135,-0.2135,-0.2135,0,0,-0.1722,-0.1752,-0.1772,-0.1827,-0.1859,-0.1902,-0.1904,-0.1957,-0.2001,-0.1993,-0.2068,-0.2083,-0.2096,-0.2147,-0.2173,-0.2154,-0.223,-0.2215,-0.2221,-0.2219,-0.2223,-0.2231,-0.2239,-0.2138,-0.2137,-0.2137,0,0,-0.1742,-0.178,-0.1813,-0.1852,-0.191,-0.1935,-0.1959,-0.2012,-0.2048,-0.2111,-0.2117,-0.2157,-0.2205,-0.222,-0.223,-0.2299,-0.2274,-0.2311,-0.2354,-0.236,-0.2367,-0.2373,-0.237,-0.2375,-0.2316,-0.2316,-0.2316,0,-0.175,-0.1795,-0.183,-0.1874,-0.1911,-0.1955,-0.2,-0.2044,-0.2111,-0.2141,-0.2147,-0.2221,-0.2237,-0.2286,-0.2314,-0.2318,-0.2312,-0.2314,-0.2369,-0.2375,-0.238,-0.2375,-0.238,-0.2319,-0.2319,-0.2319,-0.2318,0,-0.1784,-0.1836,-0.1862,-0.193,-0.1975,-0.2024,-0.2083,-0.214,-0.2185,-0.2219,-0.2291,-0.2311,-0.2348,-0.2366,-0.2364,-0.2414,-0.2396,-0.2377,-0.2339,-0.2392,-0.2385,-0.2389,-0.2325,-0.2323,-0.2322,-0.2321,0,0,-0.1756,-0.1865,-0.1877,-0.1923,-0.2011,-0.2048,-0.213,-0.2203,-0.2259,-0.2319,-0.2378,-0.2429,-0.2437,-0.2449,-0.2453,-0.2467,-0.2503,-0.2445,-0.2443,-0.2435,-0.2514,-0.2358,-0.2346,-0.2493,-0.2494,-0.2495,-0.2496,0,-0.1774,-0.1859,-0.1911,-0.2,-0.2048,-0.2119,-0.2188,-0.2263,-0.2324,-0.2395,-0.2426,-0.248,-0.2469,-0.2492,-0.2507,-0.2507,-0.2516,-0.2504,-0.2469,-0.2468,-0.2317,-0.2346,-0.2498,-0.2498,-0.2499,-0.25,-0.25,0,-0.1778,-0.184,-0.1926,-0.204,-0.2068,-0.2129,-0.224,-0.231,-0.241,-0.2453,-0.2506,-0.2533,-0.2578,-0.2553,-0.2572,-0.2567,-0.2548,-0.2539,-0.2538,-0.2369,-0.2318,-0.2434,-0.2507,-0.2506,-0.2506,-0.2505,-0.2505,0,-0.1723,-0.1846,-0.1917,-0.1957,-0.209,-0.2146,-0.2219,-0.2326,-0.2387,-0.2489,-0.2529,-0.2584,-0.2612,-0.2608,-0.2594,-0.259,-0.2597,-0.2581,-0.2422,-0.2412,-0.2523,-0.2517,-0.2583,-0.2583,-0.2583,-0.2583,-0.2583,0,-0.1701,-0.1763,-0.1903,-0.1943,-0.2029,-0.213,-0.2222,-0.2302,-0.2409,-0.246,-0.255,-0.2576,-0.2628,-0.2638,-0.2614,-0.252,-0.2607,-0.2427,-0.2398,-0.2552,-0.2549,-0.2526,-0.2519,-0.2583,-0.2583,-0.2583,-0.2583,0,-0.1622,-0.172,-0.1808,-0.1956,-0.2006,-0.2066,-0.2211,-0.2263,-0.2382,-0.2449,-0.2479,-0.2582,-0.2584,-0.2611,-0.2606,-0.2522,-0.2464,-0.2409,-0.2577,-0.2558,-0.2275,-0.2272,-0.223,-0.2224,-0.222,-0.2216,-0.2213,0,-0.1586,-0.1625,-0.179,-0.1835,-0.1906,-0.2012,-0.2072,-0.2222,-0.2267,-0.2417,-0.2422,-0.2496,-0.2532,-0.2403,-0.2449,-0.2388,-0.2356,-0.2315,-0.2289,-0.2261,-0.2238,-0.2243,-0.2246,-0.2205,-0.2204,-0.2203,-0.2201,0,-0.1503,-0.1574,-0.1639,-0.1736,-0.1814,-0.1892,-0.1989,-0.2011,-0.2161,-0.2296,-0.2295,-0.2296,-0.2301,-0.2291,-0.226,-0.2215,-0.2336,-0.2265,-0.2274,-0.225,-0.223,-0.2213,-0.2222,-0.2185,-0.2187,-0.2189,-0.219,0,-0.1427,-0.1451,-0.1539,-0.1603,-0.1695,-0.1726,-0.181,-0.1857,-0.1929,-0.21,-0.209,-0.217,-0.2273,-0.2199,-0.2168,-0.2115,-0.2081,-0.2006,-0.2028,-0.2047,-0.1984,-0.1932,-0.1764,0,0,0,0,0,-0.1342,-0.1347,-0.1397,-0.1461,-0.1539,-0.1592,-0.1724,-0.1809,-0.1963,-0.1906,-0.1994,-0.1987,-0.196,-0.201,-0.1913,-0.2077,-0.2084,-0.1955,-0.2009,-0.2094,-0.2113,-0.2054,0,0,0,0,0,0,-0.1285,-0.1326,-0.1344,-0.131,-0.132,-0.1396,-0.1472,-0.1587,-0.1573,-0.1736,-0.1733,-0.1852,-0.1856,-0.1972,-0.1864,-0.1876,-0.1866,-0.2016,-0.201,-0.2083,-0.2101,-0.2116,-0.2062,0,0,0,0,0]},{"header":{"parameterUnit":"m.s-1","parameterCategory":2,"la1":30.2991,"la2":30.254,"lo1":-89.0895,"lo2":-89.0444,"dy":0.0017,"dx":0.0017,"nx":28,"ny":28,"refTime":"2023-04-08T21:00:00:Z","depth":"4","parameterNumber":3,"parameterNumberName":"V-component_of_CURRENTS"},"data":[0,0,0,0,0,0,0,0,0,0,0,0,0,0,0,0,0,0,0,0,0,0,0,0,0,0,0,0,0,0,0,0,0,0,0,0,0,0,0,0,0,0,0,0,0,0,0,0,0,0,0,0,0,0,0,0,0,0,-0.0071,-0.007,0,-0.0005,-0.0004,-0.0003,0.0042,0.0043,0.0043,0.0043,0.0139,0.0141,0.0144,0,0,0,0,0,0,0,0,0,0,0,0,0,-0.0122,-0.0122,-0.0071,-0.007,-0.007,-0.0005,-0.0004,-0.0003,0.0042,0.0043,0.0043,0.0043,0.0138,0.0141,0.0144,0,0,0,0,0,0,0,0,0,0,0,0,0,-0.0082,-0.0122,-0.0071,-0.004,-0.0036,-0.0005,-0.0004,-0.0003,0.0042,0.0043,0.0043,0.0043,0.0137,0.0141,0.0144,0.0157,0,0,0.0155,0.0156,0,0,0,0,0,0,0,0,-0.0084,-0.008,-0.0045,-0.0042,-0.0038,0.001,0.0013,0.0052,0.0042,0.0013,0.0043,0.0044,0.0098,0.0105,0.0117,0.0162,0.0166,0.0155,0.0157,0.0159,0.016,0,0,0,0,0,0,0,-0.0087,-0.0082,-0.0044,-0.0044,-0.004,-0.0017,-0.0011,0.0021,0.0054,0.0016,0.0019,0.0025,0.01,0.0113,0.012,0.0167,0.0155,0.0158,0.016,0.0162,0.0234,0.0234,0,0,0,0,0,0,-0.0099,-0.0085,-0.0046,-0.0042,-0.0061,-0.0016,-0.0009,-0.0005,0.0053,0.0062,0.0025,0.0027,0.0107,0.0115,0.0123,0.0141,0.0159,0.0162,0.0164,0.0234,0.0234,0.0234,0,0,0,0,0,0,-0.0101,-0.0096,-0.0049,-0.0063,-0.0055,-0.0016,-0.0011,-0.0004,0.0009,0.0059,0.0069,0.003,0.0108,0.0118,0.0149,0.0145,0.0163,0.0167,0.0234,0.0234,0.0234,0.0178,0,0,0,0,0,0,-0.0102,-0.0097,-0.0102,-0.0064,-0.0055,-0.0038,-0.0011,-0.0003,0.0012,0.0016,0.0067,0.0076,0.0109,0.0144,0.0152,0.0151,0.0169,0.0234,0.0234,0.0234,0.018,0.0176,0.0173,0,0,0,0,0,-0.0104,-0.0113,-0.0102,-0.0098,-0.0061,-0.0038,-0.0032,-0.0001,0.0011,0.0013,0.0049,0.0075,0.0148,0.0146,0.0157,0.0156,0.0234,0.0234,0.0234,0.0182,0.0177,0.0173,0,0,0,0,0,0,-0.0139,-0.0108,-0.0096,-0.0095,-0.0072,-0.0031,-0.0029,-0.0007,0.0023,0.0026,0.0075,0.0086,0.0111,0.0141,0.0137,0.0176,0.0195,0.0197,0.0152,0.0148,0.0144,0.0132,0.0172,0,0,0,0,0,-0.0149,-0.0149,-0.0113,-0.0115,-0.0106,-0.0068,-0.0057,-0.0036,-0.0004,0.001,0.0046,0.0085,0.0117,0.0137,0.0169,0.0191,0.0226,0.0197,0.0193,0.019,0.0188,0.0239,0.024,0.0233,0.0233,0.0233,0,0,-0.0164,-0.0148,-0.0147,-0.0123,-0.0103,-0.0096,-0.006,-0.0048,-0.004,0.0015,0.0034,0.0071,0.0119,0.0143,0.0157,0.0169,0.0209,0.0189,0.0186,0.0186,0.0239,0.024,0.0241,0.0232,0.0232,0.0232,0,0,-0.0194,-0.0178,-0.0187,-0.0172,-0.0147,-0.0121,-0.0121,-0.0082,-0.0064,-0.004,0.0001,0.0036,0.0083,0.0121,0.0145,0.014,0.0184,0.0147,0.0123,0.0173,0.0174,0.0175,0.0214,0.0219,0.0148,0.0148,0.0148,0,-0.0215,-0.0218,-0.0187,-0.019,-0.0185,-0.0137,-0.0145,-0.0118,-0.0074,-0.006,-0.0044,0.0034,0.0073,0.0114,0.0111,0.0132,0.0163,0.0135,0.0168,0.017,0.0172,0.0212,0.0218,0.0145,0.0146,0.0146,0.0146,0,-0.0246,-0.0251,-0.0256,-0.0244,-0.0233,-0.0233,-0.0193,-0.0177,-0.0149,-0.0116,-0.0074,-0.0014,0.0034,0.0052,0.008,0.0116,0.0133,0.0154,0.0177,0.017,0.0211,0.0219,0.0142,0.0143,0.0143,0.0144,0,0,-0.0286,-0.0281,-0.0284,-0.0293,-0.0264,-0.026,-0.0247,-0.0219,-0.0211,-0.0156,-0.0136,-0.007,-0.003,0.0,0.0049,0.0095,0.0136,0.0125,0.0129,0.0158,0.0239,0.0228,0.0235,0.0163,0.0164,0.0165,0.0258,0,-0.0322,-0.0354,-0.0332,-0.0357,-0.037,-0.0327,-0.0325,-0.0292,-0.0248,-0.0216,-0.0138,-0.0101,-0.005,-0.0029,0.0026,0.0111,0.0155,0.0108,0.0246,0.025,0.0237,0.0244,0.0169,0.0264,0.0266,0.0268,0.0269,0,-0.0356,-0.0377,-0.0415,-0.0426,-0.0427,-0.0432,-0.0416,-0.0401,-0.0336,-0.0304,-0.0235,-0.0172,-0.0089,-0.0053,0.0096,0.0064,0.014,0.0208,0.0213,0.0228,0.0253,0.0277,0.0283,0.0282,0.0281,0.028,0.0279,0,-0.0408,-0.0431,-0.0468,-0.0471,-0.0474,-0.0484,-0.0478,-0.0433,-0.0423,-0.035,-0.0331,-0.0218,-0.0162,-0.0044,0.0104,0.0098,0.0266,0.0278,0.0341,0.0342,0.0348,0.0346,0.0372,0.0372,0.0372,0.0372,0.0371,0,-0.0449,-0.0479,-0.0501,-0.0522,-0.0574,-0.0547,-0.0571,-0.0545,-0.0501,-0.0489,-0.038,-0.0337,-0.0157,-0.0035,0.0091,0.0245,0.0262,0.0338,0.0367,0.0321,0.0315,0.0354,0.035,0.0375,0.0374,0.0374,0.0373,0,-0.0491,-0.0504,-0.0553,-0.0583,-0.06,-0.0634,-0.0646,-0.0654,-0.0603,-0.0579,-0.056,-0.0417,-0.0257,-0.0074,0.0128,0.0222,0.0372,0.0419,0.0354,0.0378,0.0414,0.0407,0.049,0.049,0.0491,0.0491,0.0491,0,-0.0511,-0.0543,-0.061,-0.0653,-0.067,-0.0714,-0.0746,-0.0715,-0.0708,-0.0624,-0.0612,-0.0459,-0.0348,-0.0067,0.0123,0.0365,0.0394,0.0463,0.0439,0.0407,0.0428,0.0419,0.0412,0.0492,0.0492,0.0492,0.0492,0,-0.055,-0.0577,-0.0621,-0.0719,-0.0771,-0.0822,-0.085,-0.0855,-0.0803,-0.0763,-0.0651,-0.0492,-0.0309,-0.0079,0.0116,0.0288,0.0415,0.0467,0.0467,0.0445,0.0411,0.0429,0.0421,0.0493,0.0493,0.0493,0.0493,0,-0.0575,-0.0622,-0.0689,-0.0768,-0.0846,-0.0899,-0.0911,-0.0889,-0.0871,-0.0764,-0.0728,-0.0516,-0.0382,-0.0118,0.0062,0.0234,0.0266,0.0303,0.0312,0.0313,0.0235,0.0164,0.0196,0,0,0,0,0,-0.0592,-0.0648,-0.0732,-0.0815,-0.0894,-0.0936,-0.0965,-0.0955,-0.0908,-0.0843,-0.078,-0.0606,-0.0321,-0.0185,-0.0019,0.0058,0.0287,0.0256,0.0332,0.05,0.0499,0.0437,0,0,0,0,0,0,-0.0606,-0.0686,-0.0733,-0.0835,-0.0899,-0.0974,-0.0997,-0.0969,-0.0915,-0.0844,-0.0689,-0.0586,-0.0304,-0.0419,-0.0022,0.0033,0.0098,0.0401,0.0404,0.0501,0.05,0.0499,0.0434,0,0,0,0,0]}]]